Consulta los datos en tiempo real de la estación meteorológica de La Molina
| Hora UTC | 11:15 |
|---|---|
| Temperatura | 8.4 ºC |
| Humedad | 93.5 % |
| Presión | hPa |
| Pluja | 0.0 mm |
| Velocidad viento | km/h |
| Dirección viento |
| Temperatura (ºC) | Humedad (%) | Presión (hPa) | Velocidad viento (km/h) | Precipitación (mm) | ||||||||||||
|---|---|---|---|---|---|---|---|---|---|---|---|---|---|---|---|---|
| Hora UTC | Aire | Humedad | Presión | Vel. | Dir. | Vel. Max | Dir. | Intent. máx 5 min. | ||||||||
| 00:15 | 7.0 | 94.0 | 0.2 | N | 0.2 | N | 0.0 | |||||||||
| 00:30 | 6.9 | 93.5 | 1.1 | 1.1 | N | 0.0 | ||||||||||
| 00:45 | 6.9 | 94.0 | NNE | 1.1 | N | 0.0 | ||||||||||
| 01:00 | 6.9 | 93.7 | 0.3 | 1.1 | N | 0.0 | ||||||||||
| 01:15 | 6.8 | 93.0 | 1.4 | N | 1.4 | N | 0.0 | |||||||||
| 01:30 | 6.8 | 93.2 | 1.4 | N | 0.0 | |||||||||||
| 01:45 | 6.7 | 94.0 | NNE | 1.4 | N | 0.0 | ||||||||||
| 02:00 | 6.7 | 93.7 | 1.4 | N | 0.0 | |||||||||||
| 02:15 | 6.3 | 94.0 | NNE | 1.4 | N | 0.0 | ||||||||||
| 02:30 | 6.0 | 94.0 | 1.4 | N | 0.0 | |||||||||||
| 02:45 | 6.2 | 94.0 | NNE | 1.4 | N | 0.0 | ||||||||||
| 03:00 | 6.3 | 94.6 | 1.4 | N | 0.0 | |||||||||||
| 03:15 | 6.3 | 95.0 | NNE | 1.4 | N | 0.0 | ||||||||||
| 03:30 | 6.3 | 94.8 | 0.6 | 1.4 | N | 0.0 | ||||||||||
| 03:45 | 6.6 | 95.0 | 1.4 | N | 1.4 | N | 0.0 | |||||||||
| 04:00 | 6.8 | 93.1 | 0.3 | 1.4 | N | 0.0 | ||||||||||
| 04:15 | 6.6 | 93.0 | 0.1 | N | 1.4 | N | 0.0 | |||||||||
| 04:30 | 6.2 | 93.4 | 1.4 | N | 0.0 | |||||||||||
| 04:45 | 5.9 | 94.0 | NNE | 1.4 | N | 0.0 | ||||||||||
| 05:00 | 5.8 | 94.1 | 0.0 | 1.4 | N | 0.0 | ||||||||||
| 05:15 | 5.5 | 94.0 | NNE | 1.4 | N | 0.0 | ||||||||||
| 05:30 | 5.3 | 94.1 | 0.3 | 1.4 | N | 0.0 | ||||||||||
| 05:45 | 5.2 | 94.0 | 0.5 | N | 1.4 | N | 0.0 | |||||||||
| 06:15 | 5.4 | 94.2 | 1.4 | N | 0.0 | |||||||||||
| 06:30 | 5.6 | 95.0 | NNE | 1.4 | N | 0.0 | ||||||||||
| 06:45 | 5.8 | 94.0 | 0.2 | N | 1.4 | N | 0.0 | |||||||||
| 07:00 | 6.1 | 94.4 | 1.4 | N | 0.0 | |||||||||||
| 07:15 | 6.0 | 94.1 | 1.4 | N | 0.0 | |||||||||||
| 07:30 | 6.1 | 94.0 | NNE | 1.4 | N | 0.0 | ||||||||||
| 07:45 | 6.2 | 94.6 | 1.4 | N | 0.0 | |||||||||||
| 08:00 | 6.2 | 95.0 | NNE | 1.4 | N | 0.0 | ||||||||||
| 08:15 | 6.1 | 94.4 | 1.4 | N | 0.0 | |||||||||||
| 08:30 | 6.2 | 95.0 | NNE | 1.4 | N | 0.0 | ||||||||||
| 08:45 | 6.3 | 94.8 | 1.4 | N | 0.0 | |||||||||||
| 09:00 | 6.4 | 95.0 | NNE | 1.4 | N | 0.0 | ||||||||||
| 09:15 | 6.3 | 94.9 | 1.4 | N | 0.0 | |||||||||||
| 09:30 | 6.3 | 95.0 | NNE | 1.4 | N | 0.0 | ||||||||||
| 09:45 | 6.8 | 95.7 | 0.3 | 1.4 | N | 0.0 | ||||||||||
| 10:00 | 7.4 | 96.0 | NNE | 1.4 | N | 0.0 | ||||||||||
| 10:15 | 7.8 | 95.5 | 1.4 | N | 0.0 | |||||||||||
| 10:30 | 8.2 | 95.0 | 0.4 | N | 1.4 | N | 0.0 | |||||||||
| 10:45 | 7.9 | 93.9 | 1.4 | N | 0.0 | |||||||||||
| 11:00 | 8.2 | 94.0 | 0.0 | N | 1.4 | N | 0.0 | |||||||||
| 11:15 | 8.4 | 93.5 | 1.4 | N | 0.0 | |||||||||||
| Máxima | 8.4 | 96.0 | 1.4 | N | 1.4 | N | 0.0 | |||||||||
| Mínima | 5.2 | 93.0 | 9999 | |||||||||||||
| Total | 0.0 | |||||||||||||||